Time,TemperatureF,DewpointF,PressureIn,WindDirection,WindDirectionDegrees,WindSpeedMPH,WindSpeedGustMPH,Humidity,HourlyPrecipIn,Conditions,Clouds,dailyrainin,SoftwareType,DateUTC
2013-02-07 00:00:00,47.6,46.8,30.30,NE,37,7.0,12.0,97,0.00,,---,0.00,VWS V14.00,2013-02-07 05:00:00,
2013-02-07 00:05:00,47.5,46.4,30.30,NE,36,7.0,10.0,96,0.00,,---,0.00,VWS V14.00,2013-02-07 05:05:00,
2013-02-07 00:10:00,47.5,46.7,30.31,NE,41,8.0,11.0,97,0.00,,---,0.00,VWS V14.00,2013-02-07 05:10:00,
2013-02-07 00:15:00,47.5,46.4,30.31,NNE,30,4.0,11.0,96,0.00,,---,0.00,VWS V14.00,2013-02-07 05:15:00,
2013-02-07 00:20:00,47.4,46.6,30.31,NE,34,6.0,11.0,97,0.00,,---,0.00,VWS V14.00,2013-02-07 05:20:00,
2013-02-07 00:25:00,47.4,46.6,30.31,NNE,33,6.0,11.0,97,0.00,,---,0.00,VWS V14.00,2013-02-07 05:25:00,
2013-02-07 00:30:00,47.4,46.6,30.31,NE,36,6.0,6.0,97,0.00,,---,0.00,VWS V14.00,2013-02-07 05:30:00,
2013-02-07 00:35:00,47.4,46.6,30.31,NE,41,6.0,11.0,97,0.00,,---,0.00,VWS V14.00,2013-02-07 05:35:00,
2013-02-07 00:40:00,47.4,46.6,30.30,NE,40,5.0,12.0,97,0.00,,---,0.00,VWS V14.00,2013-02-07 05:40:00,
2013-02-07 00:45:00,47.4,46.6,30.30,NNE,30,9.0,12.0,97,0.00,,---,0.00,VWS V14.00,2013-02-07 05:45:00,
2013-02-07 00:50:00,47.3,46.5,30.31,NNE,33,7.0,12.0,97,0.00,,---,0.00,VWS V14.00,2013-02-07 05:50:00,
2013-02-07 00:55:00,47.3,46.5,30.32,NNE,31,7.0,12.0,97,0.00,,---,0.00,VWS V14.00,2013-02-07 05:55:00,
2013-02-07 01:00:00,47.3,46.8,30.33,NNE,24,10.0,10.0,98,0.00,,---,0.00,VWS V14.00,2013-02-07 06:00:00,
2013-02-07 01:05:00,47.3,46.8,30.33,NE,34,7.0,10.0,98,0.00,,---,0.00,VWS V14.00,2013-02-07 06:05:00,
2013-02-07 01:10:00,47.3,46.8,30.32,NNE,29,8.0,11.0,98,0.00,,---,0.00,VWS V14.00,2013-02-07 06:10:00,
2013-02-07 01:15:00,47.3,46.8,30.32,NNE,28,9.0,12.0,98,0.00,,---,0.00,VWS V14.00,2013-02-07 06:15:00,
2013-02-07 01:20:00,47.3,46.8,30.32,NNE,30,7.0,12.0,98,0.00,,---,0.00,VWS V14.00,2013-02-07 06:20:00,
2013-02-07 01:25:00,47.3,46.8,30.31,NE,37,8.0,12.0,98,0.00,,---,0.00,VWS V14.00,2013-02-07 06:25:00,
2013-02-07 01:30:00,47.3,46.8,30.31,NE,34,6.0,7.0,98,0.00,,---,0.00,VWS V14.00,2013-02-07 06:30:00,
2013-02-07 01:35:00,47.3,46.8,30.31,NNE,28,5.0,11.0,98,0.00,,---,0.00,VWS V14.00,2013-02-07 06:35:00,
2013-02-07 01:40:00,47.3,46.8,30.31,NNE,31,7.0,11.0,98,0.00,,---,0.00,VWS V14.00,2013-02-07 06:40:00,
2013-02-07 01:45:00,47.3,47.0,30.31,NE,38,10.0,11.0,99,0.00,,---,0.00,VWS V14.00,2013-02-07 06:45:00,
2013-02-07 01:50:00,47.3,46.8,30.30,NE,48,7.0,12.0,98,0.00,,---,0.00,VWS V14.00,2013-02-07 06:50:00,
2013-02-07 01:55:00,47.3,46.8,30.30,NE,50,4.0,12.0,98,0.00,,---,0.00,VWS V14.00,2013-02-07 06:55:00,
2013-02-07 02:00:00,47.3,47.0,30.30,NE,45,9.0,10.0,99,0.00,,---,0.00,VWS V14.00,2013-02-07 07:00:00,
2013-02-07 02:05:00,47.3,47.0,30.29,NE,41,10.0,15.0,99,0.00,,---,0.00,VWS V14.00,2013-02-07 07:05:00,
2013-02-07 02:10:00,47.4,47.1,30.29,NE,48,8.0,15.0,99,0.00,,---,0.00,VWS V14.00,2013-02-07 07:10:00,
2013-02-07 02:15:00,47.4,47.1,30.29,NE,44,8.0,15.0,99,0.00,,---,0.00,VWS V14.00,2013-02-07 07:15:00,
2013-02-07 02:20:00,47.4,47.1,30.29,NE,42,11.0,15.0,99,0.00,,---,0.00,VWS V14.00,2013-02-07 07:20:00,
2013-02-07 02:25:00,47.4,46.9,30.29,NE,40,6.0,15.0,98,0.00,,---,0.00,VWS V14.00,2013-02-07 07:25:00,
2013-02-07 02:30:00,47.4,47.1,30.29,NE,40,12.0,14.0,99,0.00,,---,0.00,VWS V14.00,2013-02-07 07:30:00,
2013-02-07 02:35:00,47.4,47.1,30.28,NE,37,12.0,14.0,99,0.00,,---,0.00,VWS V14.00,2013-02-07 07:35:00,
2013-02-07 02:40:00,47.4,47.1,30.29,NE,41,11.0,14.0,99,0.00,,---,0.00,VWS V14.00,2013-02-07 07:40:00,
2013-02-07 02:45:00,47.5,47.2,30.29,NE,45,7.0,14.0,99,0.00,,---,0.00,VWS V14.00,2013-02-07 07:45:00,
2013-02-07 02:50:00,47.5,47.2,30.29,NE,39,8.0,14.0,99,0.00,,---,0.00,VWS V14.00,2013-02-07 07:50:00,
2013-02-07 02:55:00,47.5,47.2,30.29,NE,43,10.0,14.0,99,0.00,,---,0.00,VWS V14.00,2013-02-07 07:55:00,
2013-02-07 03:00:00,47.5,47.2,30.29,NE,40,8.0,9.0,99,0.00,,---,0.00,VWS V14.00,2013-02-07 08:00:00,
2013-02-07 03:05:00,47.6,47.1,30.29,NE,38,11.0,13.0,98,0.00,,---,0.00,VWS V14.00,2013-02-07 08:05:00,
2013-02-07 03:10:00,47.6,47.1,30.29,NE,37,7.0,14.0,98,0.00,,---,0.00,VWS V14.00,2013-02-07 08:10:00,
2013-02-07 03:15:00,47.6,47.3,30.29,NE,42,10.0,14.0,99,0.00,,---,0.00,VWS V14.00,2013-02-07 08:15:00,
2013-02-07 03:20:00,47.6,47.1,30.29,NE,35,9.0,14.0,98,0.00,,---,0.00,VWS V14.00,2013-02-07 08:20:00,
2013-02-07 03:25:00,47.7,47.2,30.29,NE,36,10.0,14.0,98,0.00,,---,0.00,VWS V14.00,2013-02-07 08:25:00,
2013-02-07 03:30:00,47.7,47.2,30.29,NNE,32,9.0,13.0,98,0.00,,---,0.00,VWS V14.00,2013-02-07 08:30:00,
2013-02-07 03:35:00,47.7,47.2,30.29,NE,39,10.0,14.0,98,0.00,,---,0.00,VWS V14.00,2013-02-07 08:35:00,
2013-02-07 03:40:00,47.7,47.2,30.30,NNE,33,9.0,15.0,98,0.00,,---,0.00,VWS V14.00,2013-02-07 08:40:00,
2013-02-07 03:45:00,47.7,47.2,30.30,NE,35,11.0,15.0,98,0.00,,---,0.00,VWS V14.00,2013-02-07 08:45:00,
2013-02-07 03:50:00,47.7,47.2,30.29,NE,39,7.0,15.0,98,0.00,,---,0.00,VWS V14.00,2013-02-07 08:50:00,
2013-02-07 03:55:00,47.8,47.3,30.30,NE,40,9.0,15.0,98,0.00,,---,0.00,VWS V14.00,2013-02-07 08:55:00,
2013-02-07 04:00:00,47.8,47.3,30.30,NE,41,8.0,12.0,98,0.00,,---,0.00,VWS V14.00,2013-02-07 09:00:00,
2013-02-07 04:05:00,47.8,47.3,30.30,NE,43,9.0,15.0,98,0.00,,---,0.00,VWS V14.00,2013-02-07 09:05:00,
2013-02-07 04:10:00,47.8,47.3,30.30,NE,37,8.0,15.0,98,0.00,,---,0.00,VWS V14.00,2013-02-07 09:10:00,
2013-02-07 04:15:00,47.8,47.3,30.30,NE,47,12.0,15.0,98,0.00,,---,0.00,VWS V14.00,2013-02-07 09:15:00,
2013-02-07 04:20:00,47.8,47.0,30.30,NE,38,13.0,15.0,97,0.00,,---,0.00,VWS V14.00,2013-02-07 09:20:00,
2013-02-07 04:25:00,47.8,47.3,30.30,NE,38,10.0,15.0,98,0.00,,---,0.00,VWS V14.00,2013-02-07 09:25:00,
2013-02-07 04:30:00,47.8,47.0,30.30,NE,34,10.0,11.0,97,0.00,,---,0.00,VWS V14.00,2013-02-07 09:30:00,
2013-02-07 04:35:00,47.8,47.3,30.30,NE,35,11.0,15.0,98,0.00,,---,0.00,VWS V14.00,2013-02-07 09:35:00,
2013-02-07 04:40:00,47.8,47.0,30.30,NE,39,12.0,15.0,97,0.00,,---,0.00,VWS V14.00,2013-02-07 09:40:00,
2013-02-07 04:45:00,47.8,47.3,30.31,NE,40,12.0,15.0,98,0.00,,---,0.00,VWS V14.00,2013-02-07 09:45:00,
2013-02-07 04:50:00,47.8,47.0,30.30,NE,35,8.0,15.0,97,0.00,,---,0.00,VWS V14.00,2013-02-07 09:50:00,
2013-02-07 04:55:00,47.8,47.0,30.30,NNE,32,10.0,15.0,97,0.00,,---,0.00,VWS V14.00,2013-02-07 09:55:00,
2013-02-07 05:00:00,47.8,47.0,30.30,NE,36,14.0,15.0,97,0.00,,---,0.00,VWS V14.00,2013-02-07 10:00:00,
2013-02-07 05:05:00,47.7,46.9,30.31,NE,35,11.0,15.0,97,0.00,,---,0.00,VWS V14.00,2013-02-07 10:05:00,
2013-02-07 05:10:00,47.7,46.9,30.30,NE,45,7.0,16.0,97,0.00,,---,0.00,VWS V14.00,2013-02-07 10:10:00,
2013-02-07 05:15:00,47.7,46.9,30.30,NE,42,13.0,16.0,97,0.00,,---,0.00,VWS V14.00,2013-02-07 10:15:00,
2013-02-07 05:20:00,47.7,46.9,30.30,NE,39,9.0,16.0,97,0.00,,---,0.00,VWS V14.00,2013-02-07 10:20:00,
2013-02-07 05:25:00,47.8,47.0,30.30,NE,37,9.0,16.0,97,0.00,,---,0.00,VWS V14.00,2013-02-07 10:25:00,
2013-02-07 05:30:00,47.8,47.0,30.30,NE,43,6.0,8.0,97,0.00,,---,0.00,VWS V14.00,2013-02-07 10:30:00,
2013-02-07 05:35:00,47.8,47.0,30.30,NE,38,8.0,14.0,97,0.00,,---,0.00,VWS V14.00,2013-02-07 10:35:00,
2013-02-07 05:40:00,47.7,47.2,30.30,NE,41,9.0,14.0,98,0.00,,---,0.00,VWS V14.00,2013-02-07 10:40:00,
2013-02-07 05:45:00,47.8,47.0,30.30,NNE,32,10.0,14.0,97,0.00,,---,0.00,VWS V14.00,2013-02-07 10:45:00,
2013-02-07 05:50:00,47.8,47.3,30.30,NE,39,8.0,14.0,98,0.00,,---,0.00,VWS V14.00,2013-02-07 10:50:00,
2013-02-07 05:55:00,47.8,47.3,30.30,NE,44,12.0,14.0,98,0.00,,---,0.00,VWS V14.00,2013-02-07 10:55:00,
2013-02-07 06:00:00,47.8,47.3,30.30,NE,36,7.0,9.0,98,0.00,,---,0.00,VWS V14.00,2013-02-07 11:00:00,
2013-02-07 06:05:00,47.8,47.3,30.30,NE,39,13.0,13.0,98,0.00,,---,0.00,VWS V14.00,2013-02-07 11:05:00,
2013-02-07 06:10:00,47.8,47.3,30.30,NE,45,11.0,14.0,98,0.00,,---,0.00,VWS V14.00,2013-02-07 11:10:00,
2013-02-07 06:15:00,47.8,47.3,30.31,NE,37,9.0,14.0,98,0.00,,---,0.00,VWS V14.00,2013-02-07 11:15:00,
2013-02-07 06:20:00,47.8,47.3,30.31,NE,42,8.0,14.0,98,0.00,,---,0.00,VWS V14.00,2013-02-07 11:20:00,
2013-02-07 06:25:00,47.8,47.3,30.31,NE,43,9.0,14.0,98,0.00,,---,0.00,VWS V14.00,2013-02-07 11:25:00,
2013-02-07 06:30:00,47.8,47.3,30.31,NE,37,11.0,13.0,98,0.00,,---,0.00,VWS V14.00,2013-02-07 11:30:00,
2013-02-07 06:35:00,47.8,47.3,30.31,NE,36,8.0,14.0,98,0.00,,---,0.00,VWS V14.00,2013-02-07 11:35:00,
2013-02-07 06:40:00,47.9,47.4,30.31,NE,36,10.0,14.0,98,0.00,,---,0.00,VWS V14.00,2013-02-07 11:40:00,
2013-02-07 06:45:00,47.9,47.4,30.31,NE,36,11.0,14.0,98,0.00,,---,0.00,VWS V14.00,2013-02-07 11:45:00,
2013-02-07 06:50:00,47.9,47.4,30.31,NE,36,11.0,15.0,98,0.00,,---,0.00,VWS V14.00,2013-02-07 11:50:00,
2013-02-07 06:55:00,48.0,47.5,30.31,NE,42,12.0,16.0,98,0.00,,---,0.00,VWS V14.00,2013-02-07 11:55:00,
2013-02-07 07:00:00,48.0,47.5,30.31,NE,41,12.0,12.0,98,0.00,,---,0.00,VWS V14.00,2013-02-07 12:00:00,
2013-02-07 07:05:00,48.0,47.5,30.31,NE,37,11.0,14.0,98,0.00,,---,0.00,VWS V14.00,2013-02-07 12:05:00,
2013-02-07 07:10:00,48.0,47.2,30.31,NE,35,11.0,15.0,97,0.00,,---,0.00,VWS V14.00,2013-02-07 12:10:00,
2013-02-07 07:15:00,48.0,47.5,30.31,NE,34,13.0,15.0,98,0.00,,---,0.00,VWS V14.00,2013-02-07 12:15:00,
2013-02-07 07:20:00,48.0,47.5,30.32,NE,35,11.0,15.0,98,0.00,,---,0.00,VWS V14.00,2013-02-07 12:20:00,
2013-02-07 07:25:00,48.0,47.5,30.32,NE,44,10.0,15.0,98,0.00,,---,0.00,VWS V14.00,2013-02-07 12:25:00,
2013-02-07 07:30:00,48.0,47.5,30.32,NNE,33,11.0,11.0,98,0.00,,---,0.00,VWS V14.00,2013-02-07 12:30:00,
2013-02-07 07:35:00,48.1,47.6,30.32,NE,36,10.0,15.0,98,0.00,,---,0.00,VWS V14.00,2013-02-07 12:35:00,
2013-02-07 07:40:00,48.1,47.6,30.32,NE,40,9.0,16.0,98,0.00,,---,0.00,VWS V14.00,2013-02-07 12:40:00,
2013-02-07 07:45:00,48.1,47.6,30.32,NE,35,13.0,16.0,98,0.00,,---,0.00,VWS V14.00,2013-02-07 12:45:00,
2013-02-07 07:50:00,48.2,47.7,30.32,NE,40,9.0,16.0,98,0.00,,---,0.00,VWS V14.00,2013-02-07 12:50:00,
2013-02-07 07:55:00,48.2,47.7,30.32,NE,46,11.0,16.0,98,0.00,,---,0.00,VWS V14.00,2013-02-07 12:55:00,
2013-02-07 08:00:00,48.2,47.7,30.32,NE,37,11.0,11.0,98,0.00,,---,0.00,VWS V14.00,2013-02-07 13:00:00,
2013-02-07 08:05:00,48.3,47.8,30.32,NE,45,8.0,16.0,98,0.00,,---,0.00,VWS V14.00,2013-02-07 13:05:00,
2013-02-07 08:10:00,48.4,47.6,30.32,NE,37,13.0,16.0,97,0.00,,---,0.00,VWS V14.00,2013-02-07 13:10:00,
2013-02-07 08:15:00,48.4,47.9,30.32,NE,39,12.0,16.0,98,0.00,,---,0.00,VWS V14.00,2013-02-07 13:15:00,
2013-02-07 08:20:00,48.5,48.0,30.32,NE,42,9.0,16.0,98,0.00,,---,0.00,VWS V14.00,2013-02-07 13:20:00,
2013-02-07 08:25:00,48.6,47.8,30.32,NE,39,8.0,16.0,97,0.00,,---,0.00,VWS V14.00,2013-02-07 13:25:00,
2013-02-07 08:30:00,48.7,48.2,30.32,NE,41,9.0,11.0,98,0.00,,---,0.00,VWS V14.00,2013-02-07 13:30:00,
2013-02-07 08:35:00,49.0,48.2,30.32,NNE,33,9.0,15.0,97,0.00,,---,0.00,VWS V14.00,2013-02-07 13:35:00,
2013-02-07 08:40:00,49.1,48.3,30.32,NE,38,11.0,16.0,97,0.00,,---,0.00,VWS V14.00,2013-02-07 13:40:00,
2013-02-07 08:45:00,49.3,48.8,30.31,NE,39,12.0,16.0,98,0.00,,---,0.00,VWS V14.00,2013-02-07 13:45:00,
2013-02-07 08:50:00,49.5,48.7,30.31,NE,37,9.0,16.0,97,0.00,,---,0.00,VWS V14.00,2013-02-07 13:50:00,
2013-02-07 08:55:00,49.8,49.0,30.31,NNE,32,14.0,17.0,97,0.00,,---,0.00,VWS V14.00,2013-02-07 13:55:00,
2013-02-07 09:00:00,50.0,49.2,30.31,NNE,33,7.0,8.0,97,0.00,,---,0.00,VWS V14.00,2013-02-07 14:00:00,
2013-02-07 09:05:00,50.2,49.4,30.31,NE,42,9.0,17.0,97,0.00,,---,0.00,VWS V14.00,2013-02-07 14:05:00,
2013-02-07 09:10:00,50.4,49.6,30.31,NNE,32,9.0,17.0,97,0.00,,---,0.00,VWS V14.00,2013-02-07 14:10:00,
2013-02-07 09:15:00,50.6,49.5,30.31,NE,38,10.0,17.0,96,0.00,,---,0.00,VWS V14.00,2013-02-07 14:15:00,
2013-02-07 09:20:00,50.8,49.7,30.31,NE,38,10.0,17.0,96,0.00,,---,0.00,VWS V14.00,2013-02-07 14:20:00,
2013-02-07 09:25:00,51.0,49.6,30.31,NE,37,12.0,18.0,95,0.00,,---,0.00,VWS V14.00,2013-02-07 14:25:00,
2013-02-07 09:30:00,51.2,49.8,30.32,NNE,31,9.0,11.0,95,0.00,,---,0.00,VWS V14.00,2013-02-07 14:30:00,
2013-02-07 09:35:00,51.5,50.1,30.32,NE,40,11.0,18.0,95,0.00,,---,0.00,VWS V14.00,2013-02-07 14:35:00,
2013-02-07 09:40:00,51.7,50.0,30.32,NNE,26,14.0,18.0,94,0.00,,---,0.00,VWS V14.00,2013-02-07 14:40:00,
2013-02-07 09:45:00,51.9,50.2,30.32,NE,36,11.0,20.0,94,0.00,,---,0.00,VWS V14.00,2013-02-07 14:45:00,
2013-02-07 09:50:00,52.1,50.4,30.32,NNE,32,16.0,20.0,94,0.00,,---,0.00,VWS V14.00,2013-02-07 14:50:00,
2013-02-07 09:55:00,52.3,50.3,30.32,NE,39,10.0,20.0,93,0.00,,---,0.00,VWS V14.00,2013-02-07 14:55:00,
2013-02-07 10:00:00,52.5,50.5,30.32,NE,53,10.0,11.0,93,0.00,,---,0.00,VWS V14.00,2013-02-07 15:00:00,
2013-02-07 10:05:00,52.6,50.6,30.32,NE,40,15.0,17.0,93,0.00,,---,0.00,VWS V14.00,2013-02-07 15:05:00,
2013-02-07 10:10:00,52.7,50.5,30.32,NE,39,12.0,17.0,92,0.00,,---,0.00,VWS V14.00,2013-02-07 15:10:00,
2013-02-07 10:15:00,52.9,50.6,30.32,NE,38,7.0,17.0,92,0.00,,---,0.00,VWS V14.00,2013-02-07 15:15:00,
2013-02-07 10:20:00,53.0,50.7,30.32,NE,37,11.0,17.0,92,0.00,,---,0.00,VWS V14.00,2013-02-07 15:20:00,
2013-02-07 10:25:00,53.1,50.5,30.32,NE,38,11.0,17.0,91,0.00,,---,0.00,VWS V14.00,2013-02-07 15:25:00,
2013-02-07 10:30:00,53.3,51.0,30.32,NE,39,12.0,12.0,92,0.00,,---,0.00,VWS V14.00,2013-02-07 15:30:00,
2013-02-07 10:35:00,53.4,50.8,30.33,NE,38,9.0,18.0,91,0.00,,---,0.00,VWS V14.00,2013-02-07 15:35:00,
2013-02-07 10:40:00,53.5,50.9,30.33,NNE,33,12.0,18.0,91,0.00,,---,0.00,VWS V14.00,2013-02-07 15:40:00,
2013-02-07 10:45:00,53.6,51.0,30.32,NE,35,9.0,18.0,91,0.00,,---,0.00,VWS V14.00,2013-02-07 15:45:00,
2013-02-07 10:50:00,53.7,51.1,30.32,NE,46,13.0,18.0,91,0.00,,---,0.00,VWS V14.00,2013-02-07 15:50:00,
2013-02-07 10:55:00,53.9,51.6,30.31,NNE,33,11.0,18.0,92,0.00,,---,0.00,VWS V14.00,2013-02-07 15:55:00,
2013-02-07 11:00:00,54.0,51.7,30.31,NE,46,11.0,11.0,92,0.00,,---,0.00,VWS V14.00,2013-02-07 16:00:00,
2013-02-07 11:05:00,54.2,51.6,30.31,NE,40,9.0,17.0,91,0.00,,---,0.00,VWS V14.00,2013-02-07 16:05:00,
2013-02-07 11:10:00,54.4,51.8,30.30,NE,43,12.0,17.0,91,0.00,,---,0.00,VWS V14.00,2013-02-07 16:10:00,
2013-02-07 11:15:00,54.6,52.0,30.30,NE,45,13.0,17.0,91,0.00,,---,0.00,VWS V14.00,2013-02-07 16:15:00,
2013-02-07 11:20:00,54.9,52.3,30.30,ENE,62,11.0,18.0,91,0.00,,---,0.00,VWS V14.00,2013-02-07 16:20:00,
2013-02-07 11:25:00,55.2,52.3,30.30,NE,47,13.0,18.0,90,0.00,,---,0.00,VWS V14.00,2013-02-07 16:25:00,
2013-02-07 11:30:00,55.4,52.5,30.30,ENE,58,4.0,18.0,90,0.00,,---,0.00,VWS V14.00,2013-02-07 16:30:00,
2013-02-07 11:35:00,55.6,52.4,30.29,NE,55,5.0,16.0,89,0.00,,---,0.00,VWS V14.00,2013-02-07 16:35:00,
2013-02-07 11:40:00,55.8,52.6,30.29,NE,47,11.0,16.0,89,0.00,,---,0.00,VWS V14.00,2013-02-07 16:40:00,
2013-02-07 11:45:00,55.9,52.7,30.29,NE,54,9.0,16.0,89,0.00,,---,0.00,VWS V14.00,2013-02-07 16:45:00,
2013-02-07 11:50:00,56.0,52.8,30.28,NE,43,13.0,16.0,89,0.00,,---,0.00,VWS V14.00,2013-02-07 16:50:00,
2013-02-07 11:55:00,56.1,52.6,30.28,NE,38,14.0,16.0,88,0.00,,---,0.00,VWS V14.00,2013-02-07 16:55:00,
2013-02-07 12:00:00,56.2,52.7,30.28,NE,52,10.0,12.0,88,0.00,,---,0.00,VWS V14.00,2013-02-07 17:00:00,
2013-02-07 12:05:00,56.3,52.8,30.27,NE,46,9.0,18.0,88,0.00,,---,0.00,VWS V14.00,2013-02-07 17:05:00,
2013-02-07 12:10:00,56.4,52.9,30.27,NE,55,4.0,18.0,88,0.00,,---,0.00,VWS V14.00,2013-02-07 17:10:00,
2013-02-07 12:15:00,56.4,52.6,30.27,NE,45,13.0,18.0,87,0.00,,---,0.00,VWS V14.00,2013-02-07 17:15:00,
2013-02-07 12:20:00,56.4,52.9,30.27,NE,54,11.0,18.0,88,0.00,,---,0.00,VWS V14.00,2013-02-07 17:20:00,
2013-02-07 12:25:00,56.4,52.6,30.26,ENE,59,10.0,18.0,87,0.00,,---,0.00,VWS V14.00,2013-02-07 17:25:00,
2013-02-07 12:30:00,56.4,52.6,30.25,NE,47,9.0,18.0,87,0.00,,---,0.00,VWS V14.00,2013-02-07 17:30:00,
2013-02-07 12:35:00,56.5,52.7,30.25,NE,49,9.0,11.0,87,0.00,,---,0.00,VWS V14.00,2013-02-07 17:35:00,
2013-02-07 12:40:00,56.6,52.8,30.25,NE,50,10.0,18.0,87,0.00,,---,0.00,VWS V14.00,2013-02-07 17:40:00,
2013-02-07 12:45:00,56.7,52.9,30.24,NE,47,13.0,18.0,87,0.00,,---,0.00,VWS V14.00,2013-02-07 17:45:00,
2013-02-07 12:50:00,56.8,53.0,30.24,ENE,61,8.0,18.0,87,0.00,,---,0.00,VWS V14.00,2013-02-07 17:50:00,
2013-02-07 12:55:00,56.9,53.1,30.24,ENE,58,4.0,18.0,87,0.00,,---,0.00,VWS V14.00,2013-02-07 17:55:00,
2013-02-07 13:00:00,57.0,52.9,30.24,NE,55,9.0,18.0,86,0.00,,---,0.00,VWS V14.00,2013-02-07 18:00:00,
2013-02-07 13:05:00,57.0,52.9,30.24,ENE,58,8.0,14.0,86,0.00,,---,0.00,VWS V14.00,2013-02-07 18:05:00,
2013-02-07 13:10:00,57.0,52.9,30.24,NE,48,8.0,15.0,86,0.00,,---,0.00,VWS V14.00,2013-02-07 18:10:00,
2013-02-07 13:15:00,57.0,53.2,30.23,NE,55,9.0,15.0,87,0.00,,---,0.00,VWS V14.00,2013-02-07 18:15:00,
2013-02-07 13:20:00,57.1,53.3,30.23,NE,46,6.0,15.0,87,0.00,,---,0.00,VWS V14.00,2013-02-07 18:20:00,
2013-02-07 13:25:00,57.2,53.4,30.23,NE,56,4.0,15.0,87,0.00,,---,0.00,VWS V14.00,2013-02-07 18:25:00,
2013-02-07 13:30:00,57.2,53.4,30.22,NE,52,6.0,16.0,87,0.00,,---,0.00,VWS V14.00,2013-02-07 18:30:00,
2013-02-07 13:35:00,57.2,53.4,30.22,NE,43,10.0,15.0,87,0.00,,---,0.00,VWS V14.00,2013-02-07 18:35:00,
2013-02-07 13:40:00,57.2,53.4,30.22,NE,55,9.0,16.0,87,0.00,,---,0.00,VWS V14.00,2013-02-07 18:40:00,
2013-02-07 13:45:00,57.2,53.7,30.22,NE,47,7.0,16.0,88,0.00,,---,0.00,VWS V14.00,2013-02-07 18:45:00,
2013-02-07 13:50:00,57.1,53.6,30.22,NE,46,9.0,16.0,88,0.00,,---,0.00,VWS V14.00,2013-02-07 18:50:00,
2013-02-07 13:55:00,57.1,53.6,30.21,NE,47,3.0,16.0,88,0.00,,---,0.00,VWS V14.00,2013-02-07 18:55:00,
2013-02-07 14:00:00,57.0,53.5,30.22,NNE,21,14.0,16.0,88,0.00,,---,0.00,VWS V14.00,2013-02-07 19:00:00,
2013-02-07 14:05:00,56.8,53.3,30.22,NNE,19,9.0,16.0,88,0.00,,---,0.00,VWS V14.00,2013-02-07 19:05:00,
2013-02-07 14:10:00,56.6,53.1,30.21,NNE,22,10.0,16.0,88,0.00,,---,0.00,VWS V14.00,2013-02-07 19:10:00,
2013-02-07 14:15:00,56.3,52.8,30.21,NNE,27,11.0,16.0,88,0.00,,---,0.00,VWS V14.00,2013-02-07 19:15:00,
2013-02-07 14:20:00,56.1,52.6,30.21,NNE,31,12.0,18.0,88,0.00,,---,0.00,VWS V14.00,2013-02-07 19:20:00,
2013-02-07 14:25:00,55.9,52.7,30.21,NNE,29,10.0,18.0,89,0.00,,---,0.00,VWS V14.00,2013-02-07 19:25:00,
2013-02-07 14:30:00,55.7,52.5,30.21,NE,37,11.0,18.0,89,0.00,,---,0.00,VWS V14.00,2013-02-07 19:30:00,
2013-02-07 14:35:00,55.6,53.0,30.20,NE,40,14.0,15.0,91,0.00,,---,0.00,VWS V14.00,2013-02-07 19:35:00,
2013-02-07 14:40:00,55.3,53.3,30.21,NNE,31,11.0,15.0,93,0.02,,---,0.02,VWS V14.00,2013-02-07 19:40:00,
2013-02-07 14:45:00,55.0,53.3,30.21,NE,42,10.0,15.0,94,0.04,,---,0.04,VWS V14.00,2013-02-07 19:45:00,
2013-02-07 14:50:00,54.8,53.7,30.21,NNE,32,8.0,15.0,96,0.03,,---,0.05,VWS V14.00,2013-02-07 19:50:00,
2013-02-07 14:55:00,54.6,53.8,30.21,NE,35,13.0,15.0,97,0.04,,---,0.06,VWS V14.00,2013-02-07 19:55:00,
2013-02-07 15:00:00,54.4,53.8,30.20,NE,36,11.0,15.0,98,0.05,,---,0.06,VWS V14.00,2013-02-07 20:00:00,
2013-02-07 15:05:00,54.2,53.7,30.20,NE,35,11.0,13.0,98,0.04,,---,0.06,VWS V14.00,2013-02-07 20:05:00,
2013-02-07 15:10:00,54.0,53.5,30.20,NE,44,9.0,14.0,98,0.05,,---,0.07,VWS V14.00,2013-02-07 20:10:00,
2013-02-07 15:15:00,53.9,53.6,30.20,NE,43,11.0,14.0,99,0.05,,---,0.07,VWS V14.00,2013-02-07 20:15:00,
2013-02-07 15:20:00,53.8,53.8,30.20,NE,48,12.0,14.0,100,0.05,,---,0.08,VWS V14.00,2013-02-07 20:20:00,
2013-02-07 15:25:00,53.6,53.6,30.19,NE,48,8.0,14.0,100,0.05,,---,0.08,VWS V14.00,2013-02-07 20:25:00,
2013-02-07 15:30:00,53.5,53.5,30.19,NE,35,13.0,14.0,100,0.05,,---,0.09,VWS V14.00,2013-02-07 20:30:00,
2013-02-07 15:35:00,53.4,53.4,30.19,NE,40,13.0,15.0,100,0.05,,---,0.09,VWS V14.00,2013-02-07 20:35:00,
2013-02-07 15:40:00,53.2,53.2,30.19,NE,40,11.0,15.0,100,0.04,,---,0.09,VWS V14.00,2013-02-07 20:40:00,
2013-02-07 15:45:00,53.2,53.2,30.19,NE,51,10.0,15.0,100,0.04,,---,0.09,VWS V14.00,2013-02-07 20:45:00,
2013-02-07 15:50:00,53.1,53.1,30.18,NE,40,9.0,15.0,100,0.04,,---,0.10,VWS V14.00,2013-02-07 20:50:00,
2013-02-07 15:55:00,53.1,53.1,30.18,NNE,31,12.0,15.0,100,0.04,,---,0.10,VWS V14.00,2013-02-07 20:55:00,
2013-02-07 16:00:00,52.9,52.9,30.18,NNE,33,8.0,15.0,100,0.04,,---,0.10,VWS V14.00,2013-02-07 21:00:00,
2013-02-07 16:05:00,52.9,52.9,30.18,NE,36,12.0,15.0,100,0.05,,---,0.11,VWS V14.00,2013-02-07 21:05:00,
2013-02-07 16:09:00,52.9,52.9,30.18,NNE,32,11.0,15.0,100,0.04,,---,0.11,VWS V14.00,2013-02-07 21:09:00,
2013-02-07 16:14:00,52.9,52.9,30.18,NE,37,11.0,15.0,100,0.05,,---,0.12,VWS V14.00,2013-02-07 21:14:00,
2013-02-07 16:19:00,52.9,52.9,30.18,NE,41,11.0,18.0,100,0.05,,---,0.12,VWS V14.00,2013-02-07 21:19:00,
2013-02-07 16:24:00,52.9,52.9,30.17,NE,39,10.0,18.0,100,0.05,,---,0.13,VWS V14.00,2013-02-07 21:24:00,
2013-02-07 16:29:00,52.9,52.9,30.17,NE,45,8.0,18.0,100,0.06,,---,0.14,VWS V14.00,2013-02-07 21:29:00,
2013-02-07 16:34:00,52.9,52.9,30.17,NE,49,9.0,13.0,100,0.06,,---,0.15,VWS V14.00,2013-02-07 21:34:00,
2013-02-07 16:39:00,52.9,52.9,30.16,NE,41,9.0,13.0,100,0.06,,---,0.15,VWS V14.00,2013-02-07 21:39:00,
2013-02-07 16:44:00,52.9,52.9,30.16,NE,38,8.0,13.0,100,0.06,,---,0.16,VWS V14.00,2013-02-07 21:44:00,
2013-02-07 16:49:00,52.9,52.9,30.16,NE,44,10.0,13.0,100,0.07,,---,0.17,VWS V14.00,2013-02-07 21:49:00,
2013-02-07 16:54:00,52.9,52.9,30.16,NE,44,5.0,13.0,100,0.06,,---,0.17,VWS V14.00,2013-02-07 21:54:00,
2013-02-07 16:59:00,52.9,52.9,30.16,NE,53,6.0,13.0,100,0.07,,---,0.18,VWS V14.00,2013-02-07 21:59:00,
2013-02-07 17:04:00,53.0,53.0,30.16,ENE,57,7.0,11.0,100,0.07,,---,0.19,VWS V14.00,2013-02-07 22:04:00,
2013-02-07 17:09:00,53.0,53.0,30.16,ENE,58,3.0,11.0,100,0.07,,---,0.20,VWS V14.00,2013-02-07 22:09:00,
2013-02-07 17:15:00,53.1,53.1,30.16,NE,42,11.0,11.0,100,0.08,,---,0.21,VWS V14.00,2013-02-07 22:15:00,
2013-02-07 17:20:00,53.1,53.1,30.15,NE,38,8.0,13.0,100,0.07,,---,0.22,VWS V14.00,2013-02-07 22:20:00,
2013-02-07 17:25:00,53.2,53.2,30.15,ENE,58,6.0,14.0,100,0.08,,---,0.22,VWS V14.00,2013-02-07 22:25:00,
2013-02-07 17:29:00,53.3,53.3,30.15,NE,55,8.0,14.0,100,0.07,,---,0.22,VWS V14.00,2013-02-07 22:29:00,
2013-02-07 17:34:00,53.4,53.4,30.15,NE,56,6.0,16.0,100,0.07,,---,0.23,VWS V14.00,2013-02-07 22:34:00,
2013-02-07 17:39:00,53.4,53.4,30.15,NE,52,10.0,16.0,100,0.08,,---,0.24,VWS V14.00,2013-02-07 22:39:00,
2013-02-07 17:44:00,53.4,53.4,30.15,NE,56,3.0,16.0,100,0.07,,---,0.24,VWS V14.00,2013-02-07 22:44:00,
2013-02-07 17:49:00,53.5,53.5,30.15,NE,52,7.0,16.0,100,0.08,,---,0.25,VWS V14.00,2013-02-07 22:49:00,
2013-02-07 17:54:00,53.6,53.6,30.15,NE,55,1.0,16.0,100,0.07,,---,0.25,VWS V14.00,2013-02-07 22:54:00,
2013-02-07 17:59:00,53.5,53.5,30.15,NE,56,3.0,16.0,100,0.07,,---,0.26,VWS V14.00,2013-02-07 22:59:00,
2013-02-07 18:04:00,53.5,53.5,30.15,NE,38,10.0,13.0,100,0.07,,---,0.26,VWS V14.00,2013-02-07 23:04:00,
2013-02-07 18:09:00,53.5,53.5,30.14,NE,38,14.0,18.0,100,0.07,,---,0.27,VWS V14.00,2013-02-07 23:09:00,
2013-02-07 18:14:00,53.5,53.5,30.14,NE,46,9.0,18.0,100,0.08,,---,0.28,VWS V14.00,2013-02-07 23:14:00,
2013-02-07 18:19:00,53.5,53.5,30.14,NE,49,14.0,18.0,100,0.07,,---,0.29,VWS V14.00,2013-02-07 23:19:00,
2013-02-07 18:24:00,53.5,53.5,30.14,NE,50,11.0,18.0,100,0.07,,---,0.29,VWS V14.00,2013-02-07 23:24:00,
2013-02-07 18:29:00,53.5,53.5,30.14,NE,46,15.0,18.0,100,0.08,,---,0.30,VWS V14.00,2013-02-07 23:29:00,
2013-02-07 18:34:00,53.5,53.5,30.14,NE,43,14.0,18.0,100,0.08,,---,0.31,VWS V14.00,2013-02-07 23:34:00,
2013-02-07 18:39:00,53.4,53.4,30.13,NE,42,15.0,18.0,100,0.08,,---,0.32,VWS V14.00,2013-02-07 23:39:00,
2013-02-07 18:44:00,53.3,53.3,30.13,NE,52,10.0,18.0,100,0.09,,---,0.33,VWS V14.00,2013-02-07 23:44:00,
2013-02-07 18:49:00,53.3,53.3,30.13,ENE,58,8.0,18.0,100,0.08,,---,0.34,VWS V14.00,2013-02-07 23:49:00,
2013-02-07 18:54:00,53.2,53.2,30.12,ENE,57,7.0,18.0,100,0.08,,---,0.34,VWS V14.00,2013-02-07 23:54:00,
2013-02-07 18:59:00,53.2,53.2,30.12,NE,55,8.0,18.0,100,0.09,,---,0.35,VWS V14.00,2013-02-07 23:59:00,
2013-02-07 19:04:00,53.2,53.2,30.12,NE,47,10.0,15.0,100,0.09,,---,0.36,VWS V14.00,2013-02-08 00:04:00,
2013-02-07 19:09:00,53.2,53.2,30.12,ENE,69,10.0,16.0,100,0.08,,---,0.36,VWS V14.00,2013-02-08 00:09:00,
2013-02-07 19:14:00,53.3,53.3,30.11,ENE,65,8.0,18.0,100,0.08,,---,0.37,VWS V14.00,2013-02-08 00:14:00,
2013-02-07 19:19:00,53.5,53.5,30.11,ENE,62,12.0,18.0,100,0.09,,---,0.38,VWS V14.00,2013-02-08 00:19:00,
2013-02-07 19:24:00,53.6,53.6,30.10,ENE,65,16.0,21.0,100,0.08,,---,0.38,VWS V14.00,2013-02-08 00:24:00,
2013-02-07 19:29:00,53.7,53.7,30.10,NE,51,9.0,23.0,100,0.08,,---,0.39,VWS V14.00,2013-02-08 00:29:00,
2013-02-07 19:34:00,53.8,53.8,30.09,ENE,65,18.0,23.0,100,0.09,,---,0.40,VWS V14.00,2013-02-08 00:34:00,
2013-02-07 19:39:00,53.9,53.9,30.10,ENE,71,13.0,25.0,100,0.08,,---,0.40,VWS V14.00,2013-02-08 00:39:00,
2013-02-07 19:44:00,53.9,53.9,30.09,ENE,61,11.0,25.0,100,0.08,,---,0.41,VWS V14.00,2013-02-08 00:44:00,
2013-02-07 19:49:00,53.9,53.9,30.09,ENE,68,18.0,25.0,100,0.09,,---,0.42,VWS V14.00,2013-02-08 00:49:00,
2013-02-07 19:54:00,53.9,53.9,30.09,ENE,68,11.0,25.0,100,0.08,,---,0.42,VWS V14.00,2013-02-08 00:54:00,
2013-02-07 19:59:00,53.9,53.9,30.09,ENE,64,20.0,25.0,100,0.08,,---,0.43,VWS V14.00,2013-02-08 00:59:00,
2013-02-07 20:04:00,53.9,53.9,30.09,ENE,64,13.0,23.0,100,0.09,,---,0.44,VWS V14.00,2013-02-08 01:04:00,
2013-02-07 20:09:00,53.9,53.9,30.08,ENE,69,13.0,23.0,100,0.09,,---,0.45,VWS V14.00,2013-02-08 01:09:00,
2013-02-07 20:14:00,53.9,53.9,30.08,ENE,64,14.0,23.0,100,0.09,,---,0.47,VWS V14.00,2013-02-08 01:14:00,
2013-02-07 20:19:00,53.9,53.9,30.07,ENE,63,12.0,23.0,100,0.09,,---,0.47,VWS V14.00,2013-02-08 01:19:00,
2013-02-07 20:24:00,53.9,53.9,30.07,ENE,66,14.0,25.0,100,0.09,,---,0.48,VWS V14.00,2013-02-08 01:24:00,
2013-02-07 20:29:00,53.9,53.9,30.06,ENE,69,18.0,25.0,100,0.09,,---,0.48,VWS V14.00,2013-02-08 01:29:00,
2013-02-07 20:34:00,53.9,53.9,30.06,ENE,76,12.0,24.0,100,0.09,,---,0.49,VWS V14.00,2013-02-08 01:34:00,
2013-02-07 20:39:00,53.9,53.9,30.06,ENE,69,18.0,26.0,100,0.09,,---,0.50,VWS V14.00,2013-02-08 01:39:00,
2013-02-07 20:44:00,53.8,53.8,30.06,ENE,72,17.0,26.0,100,0.09,,---,0.51,VWS V14.00,2013-02-08 01:44:00,
2013-02-07 20:49:00,53.8,53.8,30.06,ENE,66,17.0,26.0,100,0.10,,---,0.52,VWS V14.00,2013-02-08 01:49:00,
2013-02-07 20:54:00,53.8,53.8,30.06,ENE,68,22.0,26.0,100,0.11,,---,0.54,VWS V14.00,2013-02-08 01:54:00,
2013-02-07 20:59:00,53.7,53.7,30.06,ENE,70,21.0,30.0,100,0.11,,---,0.55,VWS V14.00,2013-02-08 01:59:00,
2013-02-07 21:04:00,53.7,53.7,30.06,ENE,64,12.0,24.0,100,0.11,,---,0.56,VWS V14.00,2013-02-08 02:04:00,
2013-02-07 21:09:00,53.7,53.7,30.06,ENE,68,11.0,25.0,100,0.12,,---,0.58,VWS V14.00,2013-02-08 02:09:00,
2013-02-07 21:14:00,53.7,53.7,30.05,ENE,65,17.0,25.0,100,0.13,,---,0.60,VWS V14.00,2013-02-08 02:14:00,
2013-02-07 21:19:00,53.8,53.8,30.04,ENE,70,13.0,25.0,100,0.14,,---,0.62,VWS V14.00,2013-02-08 02:19:00,
2013-02-07 21:24:00,53.8,53.8,30.04,ENE,67,24.0,25.0,100,0.14,,---,0.63,VWS V14.00,2013-02-08 02:24:00,
2013-02-07 21:29:00,53.9,53.9,30.03,ENE,69,13.0,25.0,100,0.14,,---,0.64,VWS V14.00,2013-02-08 02:29:00,
2013-02-07 21:34:00,53.9,53.9,30.03,ENE,67,11.0,24.0,100,0.14,,---,0.66,VWS V14.00,2013-02-08 02:34:00,
2013-02-07 21:39:00,53.9,53.9,30.03,ENE,64,17.0,24.0,100,0.14,,---,0.67,VWS V14.00,2013-02-08 02:39:00,
2013-02-07 21:44:00,53.9,53.9,30.03,ENE,59,22.0,24.0,100,0.15,,---,0.69,VWS V14.00,2013-02-08 02:44:00,
2013-02-07 21:49:00,53.9,53.9,30.02,NE,49,15.0,24.0,100,0.15,,---,0.71,VWS V14.00,2013-02-08 02:49:00,
2013-02-07 21:54:00,54.0,54.0,30.02,ENE,63,11.0,26.0,100,0.15,,---,0.72,VWS V14.00,2013-02-08 02:54:00,
2013-02-07 21:59:00,54.0,54.0,30.02,ENE,67,17.0,26.0,100,0.16,,---,0.74,VWS V14.00,2013-02-08 02:59:00,
2013-02-07 22:04:00,54.1,54.1,30.02,ENE,75,9.0,20.0,100,0.16,,---,0.76,VWS V14.00,2013-02-08 03:04:00,
2013-02-07 22:09:00,54.2,54.2,30.02,ENE,70,11.0,26.0,100,0.16,,---,0.77,VWS V14.00,2013-02-08 03:09:00,
2013-02-07 22:14:00,54.2,54.2,30.01,ENE,64,15.0,26.0,100,0.16,,---,0.79,VWS V14.00,2013-02-08 03:14:00,
2013-02-07 22:19:00,54.3,54.3,30.01,ENE,63,15.0,26.0,100,0.17,,---,0.80,VWS V14.00,2013-02-08 03:19:00,
2013-02-07 22:24:00,54.3,54.3,30.00,ENE,68,12.0,26.0,100,0.17,,---,0.82,VWS V14.00,2013-02-08 03:24:00,
2013-02-07 22:29:00,54.4,54.4,30.00,ENE,64,15.0,26.0,100,0.18,,---,0.84,VWS V14.00,2013-02-08 03:29:00,
2013-02-07 22:34:00,54.4,54.4,29.99,NE,55,13.0,27.0,100,0.18,,---,0.86,VWS V14.00,2013-02-08 03:34:00,
2013-02-07 22:39:00,54.4,54.4,29.99,ENE,57,9.0,27.0,100,0.20,,---,0.89,VWS V14.00,2013-02-08 03:39:00,
2013-02-07 22:44:00,54.5,54.5,29.98,ENE,60,8.0,27.0,100,0.20,,---,0.91,VWS V14.00,2013-02-08 03:44:00,
2013-02-07 22:49:00,54.5,54.5,29.97,ENE,59,8.0,27.0,100,0.21,,---,0.94,VWS V14.00,2013-02-08 03:49:00,
2013-02-07 22:54:00,54.5,54.5,29.97,ENE,68,6.0,27.0,100,0.22,,---,0.96,VWS V14.00,2013-02-08 03:54:00,
2013-02-07 22:59:00,54.6,54.6,29.96,NE,56,11.0,27.0,100,0.22,,---,0.98,VWS V14.00,2013-02-08 03:59:00,
2013-02-07 23:04:00,54.6,54.6,29.95,ENE,67,18.0,23.0,100,0.22,,---,1.01,VWS V14.00,2013-02-08 04:04:00,
2013-02-07 23:09:00,54.6,54.6,29.95,NE,55,16.0,25.0,100,0.23,,---,1.03,VWS V14.00,2013-02-08 04:09:00,
2013-02-07 23:14:00,54.6,54.6,29.94,ENE,57,9.0,25.0,100,0.23,,---,1.05,VWS V14.00,2013-02-08 04:14:00,
2013-02-07 23:19:00,54.6,54.6,29.93,ENE,68,16.0,29.0,100,0.23,,---,1.07,VWS V14.00,2013-02-08 04:19:00,
2013-02-07 23:24:00,54.5,54.5,29.93,ENE,62,18.0,29.0,100,0.23,,---,1.09,VWS V14.00,2013-02-08 04:24:00,
2013-02-07 23:29:00,54.4,54.4,29.92,ENE,70,17.0,29.0,100,0.22,,---,1.10,VWS V14.00,2013-02-08 04:29:00,
2013-02-07 23:34:00,54.3,54.3,29.92,ENE,67,23.0,32.0,100,0.23,,---,1.12,VWS V14.00,2013-02-08 04:34:00,
2013-02-07 23:39:00,54.2,54.2,29.91,ENE,65,23.0,32.0,100,0.23,,---,1.14,VWS V14.00,2013-02-08 04:39:00,
2013-02-07 23:44:00,54.2,54.2,29.90,ENE,60,18.0,32.0,100,0.25,,---,1.18,VWS V14.00,2013-02-08 04:44:00,
2013-02-07 23:49:00,54.2,54.2,29.90,ENE,62,17.0,32.0,100,0.25,,---,1.21,VWS V14.00,2013-02-08 04:49:00,
2013-02-07 23:54:00,54.2,54.2,29.89,NE,55,18.0,32.0,100,0.28,,---,1.27,VWS V14.00,2013-02-08 04:54:00,
2013-02-07 23:59:00,54.2,54.2,29.88,NE,53,15.0,32.0,100,0.32,,---,1.33,VWS V14.00,2013-02-08 04:59:00,